RH
34 35 38 41 44 44 42 44 46 49 50 50 50 51 53 54 55 56 56 56 57 57 58 58 58 59 60 60 61 62 64 65 66 66 65 64 62 58 54 47 39 30 22 17 16 16 18 20 20 21 23 26 30 35 40 45 51 58 67 74 79 83 86 86 87 88 86 85 86 87 87 86 87 88 90 90 88 85 78 84 82 77 72 70 68 67
37 39 40 42 44 44 43 44 48 51 52 52 52 53 55 56 57 57 58 58 58 58 58 59 60 60 60 60 60 62 63 64 66 66 66 65 64 62 58 54 47 39 30 22 17 15 16 18 20 21 22 26 29 33 37 42 48 55 62 70 76 81 86 86 88 88 87 86 86 88 89 88 88 89 90 92 90 89 88 92 92 88 83 81 77 73
40 42 42 43 44 45 44 46 49 52 54 54 55 56 57 58 58 58 58 58 59 59 59 60 60 59 58 59 60 61 62 64 64 65 65 65 64 63 61 57 52 45 36 27 20 16 15 17 18 20 22 24 28 31 35 40 44 51 58 66 73 78 83 86 88 88 88 86 86 86 89 88 87 88 90 92 92 92 92 92 92 92 92 90 87 82
42 43 42 43 44 45 46 48 51 53 56 57 58 58 60 60 60 60 60 60 60 60 60 60 60 59 58 58 59 60 62 63 64 64 64 65 64 64 62 58 53 46 38 29 22 17 14 16 18 19 20 23 26 30 33 37 41 46 54 62 68 74 79 84 87 88 88 87 86 86 86 87 87 88 88 90 92 93 94 93 92 91 90 90 90 88
40 42 43 45 46 46 47 51 54 56 58 60 60 60 61 62 62 60 60 60 60 61 61 60 60 60 60 60 60 60 62 63 64 64 64 65 65 64 62 58 52 44 36 28 22 16 14 15 16 18 20 22 24 28 32 34 38 43 50 57 63 68 74 80 85 87 87 87 86 86 86 85 86 88 88 89 92 93 94 94 94 92 90 90 90 90
38 41 43 46 48 50 50 53 56 60 63 63 63 62 63 63 62 62 61 61 62 63 63 63 63 62 62 62 62 62 63 64 64 64 64 65 65 64 62 57 50 42 34 27 21 16 13 14 16 17 19 20 23 26 30 32 35 40 46 52 57 63 70 76 82 86 87 87 87 86 86 84 84 86 89 89 90 92 93 94 94 93 91 90 90 90
37 40 44 48 50 52 54 56 60 64 69 69 68 66 64 64 64 63 63 63 64 65 66 66 65 65 64 65 65 65 65 65 64 64 64 64 64 64 62 57 50 42 34 26 20 15 13 14 15 17 18 19 21 24 28 30 33 36 42 47 52 58 66 73 80 84 86 87 86 86 85 85 84 85 88 89 90 90 92 92 93 93 92 90 90 90
38 40 44 50 54 57 60 61 65 69 74 74 72 70 68 66 65 64 64 64 66 67 68 68 68 68 68 68 68 69 68 66 66 65 64 64 64 63 61 58 52 44 35 26 20 15 12 13 14 16 17 18 20 22 26 28 30 34 38 43 49 55 62 70 76 81 84 86 86 86 86 86 86 86 88 88 89 89 90 90 92 92 92 92 91 90
39 41 44 50 56 62 66 67 69 72 76 75 74 73 71 70 68 66 66 66 68 70 73 74 73 72 71 71 72 72 71 69 68 66 65 64 64 63 62 58 52 45 36 28 21 16 13 13 14 16 17 18 19 21 23 26 28 32 36 41 46 52 58 66 73 78 81 83 84 86 86 87 87 87 88 88 88 89 90 90 90 90 92 90 90 89
40 42 46 50 56 63 70 70 70 72 74 76 74 73 73 73 72 71 70 70 71 73 76 78 78 76 74 73 72 72 72 71 69 67 66 66 66 65 64 60 54 46 38 29 23 17 14 13 14 15 16 17 18 19 21 23 26 30 35 39 44 49 56 63 69 74 77 80 82 84 86 87 88 87 86 88 89 89 89 89 90 90 90 88 87 87
40 46 53 57 62 66 72 73 73 73 76 77 77 76 75 76 77 77 76 74 74 76 78 80 80 79 78 76 74 73 73 72 70 68 67 67 66 66 65 60 55 47 39 31 24 19 15 14 14 15 16 16 17 18 20 21 24 27 33 37 42 46 52 60 66 70 74 77 81 83 84 86 88 87 85 86 88 90 89 89 89 89 87 88 87 86
46 52 60 67 71 74 76 76 76 77 79 80 81 80 80 80 81 80 80 78 78 78 79 79 78 78 78 77 76 74 73 72 72 70 68 67 67 66 65 61 55 48 40 32 26 20 16 15 14 15 15 16 17 18 19 20 22 26 30 35 40 44 49 56 61 66 70 74 79 82 84 86 87 88 85 85 88 90 89 89 88 87 85 85 85 85
55 62 71 76 78 80 80 81 81 82 82 82 82 82 82 82 82 81 81 81 80 79 80 79 77 75 74 76 76 76 74 74 72 71 69 68 67 67 66 62 56 49 40 32 26 20 17 16 15 15 15 16 16 17 18 19 21 24 29 34 38 42 46 52 57 61 66 71 76 80 83 86 87 88 87 86 86 88 89 89 88 85 81 80 81 83
64 73 80 81 82 83 83 83 83 83 82 82 81 82 82 82 82 81 81 81 80 79 80 80 77 74 74 74 76 76 76 74 73 71 69 68 67 68 68 64 58 50 42 33 25 20 17 16 16 16 15 15 16 16 17 18 20 23 27 32 35 38 42 48 52 57 62 67 72 76 80 83 86 88 87 86 86 87 88 89 87 82 76 76 78 80
70 78 82 82 82 80 78 79 80 80 78 78 78 80 81 82 82 82 82 81 80 80 80 79 77 74 73 74 76 77 77 76 74 72 69 67 66 66 67 64 58 52 43 35 26 19 16 15 15 16 16 15 16 16 16 17 19 22 26 29 32 35 39 44 49 54 58 63 67 71 74 79 84 87 89 88 87 86 86 88 86 80 72 74 76 77
72 81 83 80 74 68 65 68 71 72 72 74 77 80 82 82 82 82 82 82 81 81 81 80 78 75 72 72 74 76 78 76 74 72 70 66 65 65 66 64 60 53 46 38 28 21 15 14 14 15 16 16 16 16 16 17 18 20 24 26 28 31 36 41 46 50 54 58 62 66 70 74 78 83 88 88 88 86 85 87 86 80 72 72 73 74
70 74 73 68 62 56 52 57 62 65 67 72 77 80 82 82 82 82 82 82 82 82 81 81 80 77 72 70 72 75 79 78 75 72 70 67 65 64 66 65 61 54 48 40 32 23 16 14 14 14 16 16 16 16 16 16 18 20 22 24 26 28 34 40 44 48 51 55 58 62 66 68 73 78 84 88 88 86 85 87 86 81 71 70 70 70
63 61 58 56 51 46 44 49 54 59 65 73 78 82 82 82 82 82 82 82 82 82 82 81 79 77 74 72 72 74 79 79 76 74 71 68 65 64 66 66 62 56 50 42 34 26 18 14 13 14 15 16 16 16 16 16 17 18 21 22 23 26 32 38 42 46 49 52 55 58 62 64 68 72 80 87 88 88 86 87 86 82 73 70 68 67
53 46 43 42 40 39 40 43 49 58 68 76 80 82 82 82 82 82 82 82 82 82 82 80 78 76 74 74 74 76 80 80 78 75 73 70 66 64 65 66 62 58 51 44 36 28 21 16 13 13 14 15 15 16 16 16 16 18 19 20 22 24 30 38 42 45 47 49 52 54 58 60 63 67 76 84 89 90 89 88 86 82 74 71 68 66
44 37 33 35 37 37 35 38 46 57 70 77 81 82 82 81 82 83 83 82 82 82 80 79 77 75 74 74 75 77 80 80 79 77 74 73 69 65 64 64 62 57 52 45 39 32 25 18 14 12 12 14 14 15 15 16 16 17 18 19 20 24 29 36 41 44 46 48 50 52 54 57 58 62 69 79 86 89 89 88 87 82 74 70 67 65
39 34 32 34 35 33 30 34 43 54 66 75 80 82 81 81 81 81 81 82 82 81 80 80 78 77 77 76 76 78 80 81 80 78 76 73 69 64 63 64 62 57 52 46 41 36 29 21 16 12 12 12 13 14 14 15 16 16 17 18 19 22 27 34 40 44 46 48 49 50 52 54 55 57 62 72 80 86 88 88 86 82 74 69 66 64
38 35 32 31 30 29 29 34 40 50 60 72 79 82 82 82 81 80 80 82 82 82 82 81 80 80 79 78 77 77 81 81 81 80 77 73 67 62 62 64 62 58 52 47 42 38 32 24 17 13 11 12 12 13 14 14 15 16 16 17 18 21 26 32 38 43 47 49 50 51 51 52 52 54 56 64 74 82 85 87 86 81 71 68 66 64
39 36 32 29 28 27 29 33 38 45 55 68 76 81 83 82 82 82 82 83 83 83 83 82 81 80 78 77 77 78 80 81 81 80 79 74 68 62 62 63 61 57 52 48 44 39 33 25 19 14 11 11 12 12 13 14 14 15 16 16 18 20 24 30 36 42 46 50 52 53 53 52 52 52 52 57 64 73 80 85 86 81 70 66 64 62
40 38 34 31 29 28 28 31 36 43 52 64 73 79 82 82 83 83 83 83 83 83 83 82 80 78 77 78 78 79 79 81 81 80 79 75 70 65 63 64 61 57 52 48 45 41 35 27 21 15 12 11 11 12 12 13 14 14 15 16 18 20 23 28 33 39 44 49 53 55 55 54 52 51 50 51 56 63 73 82 85 80 68 62 60 60
44 42 38 35 32 29 28 30 34 42 51 61 70 77 82 82 82 83 83 83 84 84 84 82 80 78 77 78 78 78 78 80 81 80 79 76 72 68 66 66 64 58 52 49 46 43 38 31 24 18 14 12 11 11 12 13 13 14 15 16 17 19 22 26 30 36 42 48 53 57 58 57 54 52 49 48 49 54 65 77 84 80 64 58 56 56
47 45 42 39 35 32 29 29 32 38 47 58 68 76 82 82 82 82 83 84 84 84 84 82 80 78 78 79 79 78 78 80 81 81 80 77 74 70 67 68 66 61 54 50 48 45 41 35 28 23 18 14 12 11 12 12 12 13 14 15 17 19 20 23 27 32 39 45 52 57 61 60 58 54 50 47 45 47 57 74 82 80 65 55 52 52
47 46 44 42 38 34 30 28 29 33 42 54 66 76 82 82 82 82 83 84 84 84 84 82 81 80 79 80 79 79 79 80 81 81 81 79 75 71 67 68 66 62 56 51 48 46 43 38 33 28 24 18 15 13 12 12 12 12 13 14 16 18 19 21 24 28 34 42 49 56 62 64 62 58 53 47 42 42 52 74 83 79 64 54 49 48
45 45 46 44 40 36 31 28 27 30 38 50 64 76 83 83 83 83 84 84 84 84 84 83 82 81 80 79 78 78 78 80 81 82 82 79 75 71 68 68 66 62 57 51 47 45 44 42 38 34 29 24 19 16 14 12 12 11 12 13 14 16 18 20 22 26 30 38 45 53 61 68 68 64 57 48 40 38 50 74 83 81 68 58 52 48
44 45 46 46 44 40 34 29 27 29 35 46 60 72 82 83 83 84 84 84 84 84 83 82 82 82 80 78 77 76 76 79 81 82 81 78 74 71 68 67 64 60 56 51 46 43 43 42 40 37 33 28 24 20 16 14 12 11 11 11 13 15 16 18 20 23 27 34 42 50 57 67 72 72 63 50 38 36 52 75 83 80 71 65 60 54
46 47 49 49 48 44 38 32 28 28 30 40 52 66 80 83 84 84 84 84 84 84 82 81 81 81 80 78 76 75 75 79 81 82 81 77 74 70 67 65 62 59 56 51 46 42 40 41 41 40 36 31 26 23 20 16 14 12 10 10 11 13 15 17 19 22 25 31 38 46 52 63 72 76 69 52 39 39 60 77 80 75 71 70 66 60
48 50 52 54 52 49 42 34 29 26 26 32 44 58 74 81 84 84 84 84 84 83 82 80 80 80 80 80 78 76 76 80 82 82 80 76 72 68 65 63 60 58 57 53 48 42 36 37 40 41 38 34 29 26 22 18 15 12 10 10 10 11 13 15 18 20 24 28 34 42 48 58 70 77 76 57 46 49 73 81 74 65 64 66 66 63
50 52 56 58 57 52 45 37 30 25 23 26 36 49 66 77 83 85 84 84 83 82 82 80 79 78 79 80 79 79 79 81 82 81 78 74 69 64 62 60 58 56 56 52 49 44 38 34 36 40 40 36 32 27 23 20 16 13 10 10 9 10 10 14 17 20 22 26 30 36 42 53 67 78 81 66 59 62 81 82 71 58 54 57 60 61
51 56 60 61 58 54 46 38 32 26 23 24 30 42 58 72 81 85 84 84 83 82 82 80 79 78 78 78 80 80 82 82 81 80 76 71 65 60 58 58 56 54 53 50 47 43 39 34 34 35 38 37 34 29 24 21 17 14 11 10 8 8 9 12 15 18 21 23 26 30 36 47 62 76 84 76 70 70 78 78 71 60 52 51 53 56
54 58 62 62 58 53 46 40 35 29 24 24 27 36 49 65 77 84 84 84 84 82 82 81 80 79 78 78 79 80 83 82 80 78 74 69 63 58 56 55 54 52 50 47 44 40 37 33 32 31 33 34 34 31 27 22 18 14 11 10 8 8 8 10 12 16 18 20 21 24 29 40 57 73 83 78 71 66 65 66 64 60 57 54 52 52
56 60 63 60 57 52 48 44 38 33 27 24 26 31 40 56 70 80 84 84 84 83 82 81 81 81 82 81 80 80 82 82 80 77 74 72 67 62 57 54 52 49 46 43 40 38 35 32 30 29 28 30 31 31 29 24 20 15 12 10 8 8 7 8 10 12 14 15 16 19 24 35 52 70 81 76 68 60 55 54 52 51 54 57 56 52
58 60 61 58 56 54 52 48 42 37 30 26 25 27 33 46 61 74 83 84 84 83 82 82 82 82 83 83 83 82 82 82 81 79 77 76 73 68 62 58 56 52 48 42 38 35 33 31 29 28 27 27 28 29 29 24 20 16 12 10 8 7 6 6 7 8 10 11 13 16 20 30 47 64 76 74 68 61 56 53 48 44 42 50 54 55
58 60 60 58 57 56 55 52 46 40 34 29 26 25 27 38 51 66 79 83 84 83 82 82 83 83 84 84 84 84 83 82 81 80 78 76 74 70 67 64 62 58 54 47 41 36 33 31 29 28 27 26 26 26 27 24 20 17 14 11 9 7 6 6 6 7 8 9 10 13 17 26 41 57 67 65 62 60 57 55 51 45 38 40 45 50
58 59 58 58 59 59 58 55 51 45 39 33 28 24 24 30 42 56 72 80 83 83 82 82 82 83 84 84 84 84 84 83 82 80 78 75 72 68 67 65 64 63 60 53 46 40 36 33 30 28 28 26 26 24 24 21 19 16 14 11 9 7 6 6 6 7 8 9 10 12 14 22 34 46 57 56 54 52 51 51 50 47 42 36 36 40
57 58 58 60 61 62 61 58 54 49 43 37 31 26 22 25 34 46 61 72 79 83 83 82 82 82 84 84 84 84 83 81 80 79 77 76 73 70 68 66 66 65 63 58 51 44 40 36 33 31 29 28 26 24 22 19 16 14 12 10 8 7 6 6 6 7 8 10 10 12 14 19 27 37 47 50 48 46 44 45 46 46 44 39 35 34
55 57 58 60 62 63 63 60 57 52 47 41 35 28 22 22 26 36 49 60 70 77 82 83 82 82 82 84 84 83 81 78 77 77 77 77 77 76 74 72 70 68 66 60 54 47 42 39 36 34 32 30 28 26 22 19 16 13 10 10 8 7 6 6 6 6 8 10 11 12 14 17 23 30 39 43 44 42 41 42 44 46 44 40 36 32
52 55 58 60 62 63 62 61 58 55 50 45 39 32 26 22 22 28 37 48 58 66 76 80 82 81 82 83 84 83 82 80 79 79 80 80 80 80 80 78 76 73 69 63 56 49 43 40 38 36 35 32 30 26 24 20 16 13 11 10 8 7 6 6 6 6 7 8 10 11 12 16 20 26 33 38 40 40 40 42 46 48 48 42 37 32
50 53 56 58 60 61 61 60 58 56 52 48 42 37 30 24 22 22 26 33 41 50 60 69 74 79 81 83 84 84 84 83 83 83 83 83 83 82 81 80 79 78 74 68 61 53 46 42 40 38 38 35 32 28 26 22 18 14 12 10 8 6 5 5 5 6 7 8 9 10 11 14 18 23 29 34 36 38 38 42 46 51 52 46 40 34
46 49 53 56 58 60 59 58 57 56 54 51 46 41 34 28 24 20 19 21 26 32 41 52 61 70 77 81 84 84 85 85 85 85 84 84 84 84 82 81 81 80 78 72 66 59 52 45 42 40 40 38 34 30 27 24 21 17 14 11 8 7 6 4 4 5 6 7 8 10 11 13 16 21 26 30 33 35 36 40 45 49 51 47 42 36
42 45 49 52 56 58 58 58 57 56 55 54 50 44 38 32 27 23 20 18 18 20 24 34 44 54 63 73 80 83 84 85 86 86 86 85 85 84 84 82 81 80 79 74 70 66 59 51 45 42 41 39 36 32 29 27 24 20 16 14 11 8 6 5 4 4 4 6 7 8 10 12 15 18 23 27 30 32 32 35 39 42 45 43 40 35
39 42 45 50 54 57 58 58 57 56 56 54 52 47 42 36 31 26 23 20 18 16 16 20 26 34 43 56 67 76 82 84 86 86 86 86 86 86 85 84 82 81 80 78 76 73 67 59 51 45 42 39 36 34 32 30 27 24 19 17 14 11 8 7 5 3 2 4 5 7 8 10 13 16 20 24 26 28 28 28 29 30 32 33 34 32
36 38 42 47 52 56 58 58 58 56 56 54 52 49 45 40 34 30 26 23 21 19 16 16 17 21 26 36 48 61 73 80 84 86 86 86 86 86 86 85 85 84 82 82 80 78 74 68 60 52 44 40 36 34 33 31 28 26 22 20 17 14 12 10 8 5 2 2 3 4 6 8 10 12 14 18 20 22 22 21 20 19 20 22 26 28
34 36 39 44 50 54 57 58 58 57 56 55 54 51 48 43 38 33 28 26 23 21 19 16 16 16 18 23 32 44 58 70 79 84 87 87 87 87 87 86 86 86 84 84 83 82 81 75 67 58 48 42 39 36 35 32 30 26 24 21 18 16 14 14 12 10 5 3 2 2 3 4 6 8 10 12 13 14 16 15 15 14 14 16 20 24
34 35 38 42 47 52 55 57 58 58 57 56 54 53 50 46 42 37 32 27 24 22 20 18 16 16 16 18 24 34 46 60 72 80 86 87 87 87 86 86 86 86 86 85 84 84 83 81 75 66 54 46 42 40 38 36 32 28 24 21 18 16 16 16 16 14 10 6 4 2 2 2 3 4 6 8 10 11 12 13 13 13 14 14 17 21
34 34 36 40 45 50 54 56 58 58 58 57 56 54 52 49 45 40 35 30 26 23 20 19 18 17 18 19 23 28 38 50 63 74 83 86 86 86 86 85 86 86 86 86 85 84 84 83 81 76 65 54 48 44 43 40 36 31 26 21 18 16 16 17 18 18 15 10 6 4 2 2 2 2 3 4 6 8 10 12 13 14 14 15 17 19
34 34 36 40 44 48 52 55 57 58 58 57 56 55 54 51 48 43 38 33 28 24 22 20 19 18 19 20 23 27 34 44 56 68 79 84 85 85 85 85 86 86 87 86 86 86 84 83 83 81 76 65 56 50 48 44 40 34 26 22 18 16 15 16 19 21 20 15 10 6 3 2 2 1 2 2 4 5 7 8 11 13 15 16 17 18
34 34 36 39 43 47 51 54 56 57 57 56 56 55 54 52 50 46 40 35 30 26 23 21 20 20 20 21 23 26 30 39 49 60 72 80 84 85 85 86 86 87 87 87 87 86 86 84 83 82 81 73 62 54 50 47 42 36 28 23 20 18 17 17 20 22 23 19 14 9 4 2 1 1 1 2 2 3 4 6 8 10 13 15 16 18
Wind_Speed
44 43 43 42 42 43 43 43 44 46 47 46 46 47 47 48 49 49 49 49 49 48 47 44 41 38 35 34 32 32 32 32 34 36 39 42 44 46 47 47 47 46 45 44 42 39 38 39 41 43 44 44 44 45 45 46 47 46 45 46 49 49 48 46 44 37 28 22 22 23 22 22 26 33 41 44 46 47 47 43 41 43 46 49 52 55
44 43 43 42 42 44 44 44 45 46 47 48 48 49 50 51 51 50 50 49 49 48 47 46 43 40 37 34 32 31 30 30 31 33 35 38 42 44 46 47 47 46 45 44 42 39 37 38 40 42 43 44 44 45 46 47 48 48 48 48 49 50 49 48 46 41 31 23 22 24 25 25 29 35 41 46 47 47 46 42 38 37 42 46 51 54
44 43 43 42 43 44 45 45 46 47 48 49 50 50 52 53 53 52 51 50 49 48 47 46 44 42 39 36 33 31 30 29 29 30 32 35 38 41 44 46 46 46 45 43 41 38 36 36 38 40 42 43 44 45 47 48 49 50 50 50 50 51 50 49 47 43 35 27 22 23 27 29 32 37 43 47 48 47 46 44 41 38 37 42 48 53
43 43 43 43 43 44 45 46 47 48 49 50 51 52 53 55 55 53 52 50 49 48 47 45 44 43 41 38 35 32 30 29 29 29 30 32 35 38 41 44 45 45 44 42 39 37 35 35 36 39 42 43 44 46 47 49 50 51 52 51 52 52 52 51 48 45 39 30 23 22 26 31 35 40 46 49 50 48 47 45 43 39 35 38 44 52
42 42 43 44 44 45 46 47 48 49 50 51 52 54 55 56 56 54 52 50 49 48 47 46 45 44 43 41 38 35 32 30 29 29 30 31 33 36 39 42 44 44 43 40 37 35 33 33 35 38 41 43 44 45 47 49 50 52 53 53 54 54 54 51 49 46 42 33 25 22 25 29 35 41 45 49 50 50 50 46 42 38 34 33 38 47
41 42 43 44 45 46 47 48 49 50 52 53 54 55 57 57 56 55 53 51 50 49 48 47 46 45 44 43 41 38 35 32 31 30 30 30 32 34 37 40 42 42 41 39 36 33 31 31 33 36 40 42 44 45 47 49 50 52 53 54 55 56 55 53 50 46 42 36 28 23 24 26 33 39 43 46 49 50 50 46 41 37 33 32 34 42
42 42 42 44 45 47 48 49 50 51 53 56 57 58 58 58 57 55 54 52 50 49 49 48 47 46 45 45 43 41 38 35 32 30 30 30 31 33 36 38 40 40 39 38 35 32 30 30 32 35 39 42 43 45 46 48 50 51 53 55 57 57 57 54 51 48 44 39 32 26 23 24 28 34 39 41 45 47 47 44 40 37 35 33 35 42
43 43 43 44 46 48 49 50 51 52 54 57 59 61 60 59 57 55 53 51 50 50 50 49 48 47 47 46 45 44 41 37 34 31 29 29 30 32 34 36 38 38 38 37 34 32 30 29 31 34 38 41 43 44 46 48 49 51 53 56 58 58 57 56 54 50 46 41 36 30 25 23 25 31 36 41 44 45 44 42 41 39 37 36 38 44
43 43 44 45 46 48 50 52 52 53 55 58 60 62 61 60 58 55 53 51 51 50 51 51 50 49 48 47 46 44 42 39 35 32 30 29 29 30 32 34 35 36 36 35 34 32 29 29 30 33 37 40 42 43 45 47 49 51 54 57 58 59 58 58 56 53 49 45 41 35 27 23 24 29 34 39 41 42 41 41 41 41 40 39 41 46
43 44 45 46 47 49 51 53 54 55 56 58 60 61 61 60 57 55 53 52 51 51 51 51 50 49 47 46 44 43 42 39 35 32 29 28 28 29 30 32 33 34 35 34 33 31 29 28 29 32 36 39 41 42 44 46 48 50 54 57 59 59 59 59 58 55 51 48 45 41 33 25 23 26 30 34 37 40 40 41 42 43 43 43 44 48
43 44 45 47 48 50 52 54 56 57 57 59 61 61 60 58 56 54 53 52 52 51 51 50 49 47 46 44 43 42 40 38 35 32 29 28 28 28 29 31 32 33 33 33 32 31 30 29 29 32 36 39 41 42 43 45 47 49 53 57 59 60 61 61 59 56 52 50 47 44 38 31 26 25 26 30 35 39 39 40 43 45 45 46 47 50
43 44 46 47 49 50 52 55 57 57 57 58 58 58 57 55 53 52 52 53 52 52 51 49 47 45 44 43 42 41 39 37 35 32 30 28 27 27 28 30 31 32 32 32 32 31 30 29 29 31 35 38 41 42 43 45 46 48 52 56 59 61 62 62 60 56 53 50 48 45 42 37 31 26 24 27 34 39 39 40 43 46 47 48 48 50
43 44 46 47 48 50 51 53 54 54 56 57 57 57 55 53 51 51 52 52 52 52 51 49 47 44 43 42 41 40 39 37 34 32 30 28 27 27 27 29 30 31 31 32 31 31 30 29 29 31 35 38 41 42 43 44 46 47 51 55 58 61 62 63 61 57 54 51 48 46 44 41 36 30 25 25 32 38 40 41 44 47 48 48 49 51
43 44 45 47 48 48 49 51 53 56 57 57 55 54 52 50 50 51 52 53 52 51 50 49 46 44 42 41 40 39 38 36 34 31 29 28 26 26 27 28 29 30 31 31 31 30 30 29 30 31 34 37 40 42 43 44 45 47 50 54 57 60 62 63 62 59 55 52 49 47 45 42 38 33 28 26 28 34 40 43 47 49 49 49 50 52
42 43 44 46 47 48 50 52 55 56 56 54 52 50 49 49 50 51 53 53 53 51 49 48 46 44 42 40 39 38 37 36 34 31 29 27 25 25 25 27 28 29 30 30 31 30 30 30 30 31 33 36 39 41 43 44 45 47 50 53 55 57 59 61 62 60 57 54 51 48 46 43 39 35 31 28 26 29 36 44 49 52 51 50 50 53
41 42 44 47 49 50 51 52 53 53 51 50 48 48 48 49 50 51 52 53 52 50 49 48 46 44 41 38 37 37 36 36 34 31 29 26 24 23 24 25 27 28 29 30 30 30 30 30 30 31 32 35 38 41 42 44 45 47 50 53 54 55 56 59 61 60 58 55 53 50 47 44 41 37 34 31 27 26 30 41 50 55 54 52 52 54
41 43 46 48 49 49 49 48 49 48 47 46 46 46 47 49 50 51 51 51 50 49 48 48 46 44 41 38 35 34 35 35 34 31 29 26 24 22 22 24 26 27 28 29 30 30 30 30 30 30 32 34 37 40 42 43 45 47 50 52 53 52 53 56 59 60 59 57 54 52 49 46 42 38 35 34 30 26 27 37 48 55 55 53 53 55
41 43 45 46 47 46 46 46 45 45 44 44 44 45 47 48 49 49 49 49 49 49 48 47 44 42 40 39 36 33 33 34 34 32 30 28 24 22 22 23 25 26 28 29 29 29 29 29 29 30 31 33 36 39 41 42 44 47 50 52 51 51 51 53 56 59 59 58 56 54 51 49 44 39 36 35 32 28 28 36 46 52 54 54 54 56
41 42 42 43 43 43 43 43 43 43 43 43 44 46 47 47 47 47 47 47 47 47 47 46 43 40 38 38 35 33 32 34 34 33 32 30 26 23 22 22 24 26 27 28 29 29 29 29 29 30 30 32 35 38 40 41 43 46 49 51 50 49 49 51 54 57 59 58 57 55 53 51 47 41 36 36 35 31 30 36 44 50 52 53 54 56
40 40 40 40 41 42 42 42 41 41 42 42 44 45 47 46 46 46 46 46 46 46 46 45 43 40 37 36 35 33 33 33 34 34 32 31 27 24 22 22 23 25 27 27 28 28 28 29 29 29 30 31 34 36 39 40 42 45 47 49 49 48 48 50 52 55 57 58 58 56 55 52 49 44 37 38 37 34 32 36 44 49 50 51 53 55
39 38 38 38 40 41 42 42 42 41 41 42 43 44 45 45 45 45 45 45 46 46 45 44 42 40 37 35 34 33 32 32 33 33 31 30 27 24 21 21 23 24 26 26 26 27 27 28 29 29 30 31 33 35 38 40 41 43 46 47 47 47 48 49 50 52 55 56 57 57 56 54 51 46 41 38 37 36 33 36 43 48 50 51 52 54
37 37 37 38 39 40 42 42 42 42 41 41 42 43 44 44 45 45 44 45 45 45 44 43 40 37 35 33 32 31 30 30 31 31 30 30 27 23 21 22 23 24 25 25 25 26 27 28 28 29 29 30 32 34 37 39 41 43 44 45 45 46 47 48 49 50 52 54 55 56 56 55 53 49 44 40 38 36 34 35 42 49 51 51 51 53
36 36 37 38 39 40 41 42 42 42 41 41 41 42 43 43 44 44 44 44 44 43 42 39 36 34 32 31 30 29 29 28 29 29 29 29 27 23 21 21 22 23 24 24 24 25 26 27 28 28 28 29 30 33 36 39 40 42 44 44 45 45 46 47 48 48 49 51 53 55 56 56 55 52 48 43 39 37 35 35 41 49 52 51 51 53
35 36 37 38 39 39 40 41 41 41 41 41 41 42 42 42 43 43 43 43 43 41 39 36 34 31 30 29 29 28 27 27 27 27 28 27 25 23 21 20 21 22 22 22 23 24 25 26 27 27 28 28 29 32 35 38 40 42 44 44 45 45 46 47 47 47 47 48 50 52 54 55 55 54 51 47 42 38 36 36 41 49 54 53 52 53
35 36 37 37 38 39 39 40 40 40 40 40 41 42 42 42 42 42 42 42 41 39 37 34 32 30 29 28 28 27 26 25 25 26 26 26 24 22 20 20 21 21 21 21 22 23 24 25 26 26 27 27 28 30 33 36 38 41 43 45 45 45 46 47 47 47 46 46 47 49 51 53 55 55 53 50 46 41 38 37 43 51 56 55 54 54
34 35 36 36 37 38 38 39 39 39 39 39 40 41 41 41 41 41 40 40 39 37 35 33 31 29 28 27 27 26 25 24 24 24 24 24 23 21 19 19 20 21 21 21 21 21 23 24 25 25 25 26 26 28 30 33 36 39 42 45 46 46 46 47 47 47 46 45 45 46 48 50 53 54 54 52 49 45 41 40 44 52 58 57 56 56
34 34 35 35 36 37 37 38 39 39 39 39 39 40 40 40 39 39 38 38 37 35 33 31 29 28 27 26 26 25 24 23 23 23 23 24 23 22 19 19 20 21 21 20 20 20 21 22 23 24 24 24 25 26 28 30 32 36 40 44 47 47 47 47 47 47 46 45 44 44 44 47 50 53 54 53 50 47 44 42 45 52 59 59 59 59
34 34 34 35 36 37 38 38 39 39 39 38 38 38 38 37 37 36 36 36 35 34 31 30 28 27 26 25 24 23 22 21 21 22 22 24 24 22 20 20 20 21 21 20 19 19 20 20 21 22 23 23 24 24 25 27 29 32 36 41 45 48 48 47 47 46 46 45 44 43 43 44 47 50 53 53 51 49 46 45 47 53 58 59 60 61
34 34 35 35 36 37 38 38 39 38 38 37 36 36 35 35 34 34 35 35 34 33 30 28 26 25 24 23 22 20 19 19 19 20 22 23 24 22 21 21 21 21 21 21 20 18 18 18 19 21 21 22 22 23 24 25 26 29 32 38 43 46 48 47 47 47 46 46 44 43 42 42 45 48 51 53 52 50 48 47 49 53 56 58 59 61
34 35 35 36 36 37 37 38 37 37 37 36 35 35 34 33 32 33 33 34 33 32 29 27 25 23 23 22 21 19 17 17 18 20 21 23 23 22 21 21 21 21 21 21 20 18 16 16 17 19 20 21 21 22 22 23 24 26 29 34 39 44 47 47 47 47 47 47 45 43 42 42 43 46 50 52 52 51 50 50 51 54 55 56 57 59
34 34 35 35 36 36 36 36 37 37 37 36 36 35 33 33 32 32 32 33 32 31 29 26 24 22 21 20 20 18 17 16 17 19 20 22 22 22 21 21 20 20 20 20 20 18 16 14 15 16 18 20 20 20 21 22 23 24 27 30 35 39 44 47 48 47 47 47 46 44 42 41 42 45 49 52 53 52 51 52 54 55 54 54 55 56
33 34 34 35 35 35 35 36 36 37 37 37 37 36 35 33 32 32 32 32 32 30 28 26 23 21 19 19 19 18 17 16 16 18 20 21 21 21 21 21 20 19 19 19 19 19 17 14 13 14 17 18 19 19 20 20 21 23 25 27 31 35 40 44 47 48 47 47 46 44 42 40 41 44 49 52 53 52 50 51 54 56 55 54 54 55
33 33 33 34 34 34 34 35 36 37 38 38 38 37 36 34 33 32 31 31 31 30 28 26 23 21 19 18 17 17 17 16 16 18 19 21 21 20 20 20 20 19 19 19 19 18 17 15 13 13 15 17 18 19 19 19 20 22 24 26 28 31 35 40 44 46 47 47 46 45 43 40 40 43 47 52 53 52 49 49 52 54 54 54 55 55
32 32 33 33 33 33 34 34 35 36 37 38 38 37 36 35 33 32 31 30 30 29 28 26 24 22 20 18 17 17 16 16 16 18 19 20 20 20 19 19 19 18 18 18 18 18 17 16 14 14 14 16 17 18 18 18 19 21 23 25 27 29 32 36 41 44 46 46 45 44 43 41 41 42 46 50 52 52 50 49 49 51 52 54 55 56
31 31 32 32 33 33 33 34 35 36 37 37 38 37 36 35 33 32 30 29 29 28 28 26 24 22 21 19 18 17 16 15 16 18 19 19 19 19 18 17 17 17 17 17 17 17 16 15 14 14 14 15 16 17 17 18 19 20 22 24 26 27 30 33 37 40 43 44 44 44 43 42 42 43 45 48 50 51 50 49 48 49 50 52 54 55
31 31 32 32 33 33 33 34 34 35 36 37 37 37 36 35 33 32 30 29 28 27 27 26 25 23 21 20 19 17 15 15 16 17 18 18 18 18 17 16 16 16 16 16 16 16 16 15 14 14 14 15 15 16 17 17 18 19 21 23 25 27 29 31 34 37 39 40 42 43 43 43 43 44 45 47 48 49 49 49 48 48 49 50 52 54
30 31 31 32 33 33 33 33 34 35 35 36 36 36 36 35 33 32 30 28 27 27 26 26 24 23 21 20 18 17 16 15 16 16 17 18 18 18 17 16 15 15 15 15 15 15 15 14 14 13 14 14 15 15 16 17 18 19 20 22 25 26 28 30 33 35 37 39 40 41 43 44 45 46 47 48 48 49 49 49 49 49 49 50 51 52
30 31 31 32 32 32 32 33 33 34 34 35 36 36 35 35 33 32 30 28 27 26 26 25 24 22 20 19 18 17 16 16 15 15 16 17 17 18 17 16 15 15 15 15 15 15 14 14 13 12 13 14 14 15 16 17 18 19 20 22 24 26 28 30 32 35 37 39 40 41 43 45 47 48 49 49 49 49 49 49 49 49 50 50 51 52
30 30 31 31 31 31 32 32 32 33 33 34 35 35 35 35 33 32 30 28 27 26 25 24 23 21 19 18 17 17 17 16 16 15 15 15 16 17 17 16 16 16 16 16 15 15 14 13 12 12 12 13 14 15 15 16 17 19 20 22 24 26 28 30 32 35 38 40 40 41 43 45 48 50 51 51 51 50 50 50 50 51 51 52 52 53
30 30 30 31 31 31 31 31 31 32 32 33 34 34 35 34 34 32 30 29 27 26 25 24 22 20 18 17 17 17 17 17 17 17 17 16 16 16 16 16 16 15 16 16 16 15 14 13 13 12 12 13 14 15 16 16 17 18 20 22 23 25 28 30 32 34 37 40 41 42 44 46 49 51 53 53 53 53 52 52 53 53 54 54 55 55
29 30 30 30 30 30 30 30 30 31 31 32 33 33 34 34 33 32 31 29 28 27 26 25 23 21 18 17 17 17 18 19 19 19 20 19 19 18 17 17 16 15 15 16 16 15 14 14 13 12 12 13 14 15 16 16 17 18 20 22 23 25 28 30 31 33 35 38 41 43 44 46 49 52 54 55 55 55 55 55 55 56 57 57 58 58
29 29 29 30 29 29 29 29 29 30 30 31 32 32 33 33 33 32 31 29 29 28 27 26 24 22 20 18 17 17 18 19 20 21 22 22 22 21 20 18 17 16 16 15 15 14 14 14 13 12 13 13 15 16 16 16 17 18 19 21 23 25 27 29 31 32 34 36 39 41 42 45 48 52 55 57 57 57 56 56 57 57 58 59 60 60
29 29 29 29 29 29 29 29 29 29 29 30 30 31 32 32 32 31 30 29 28 28 27 27 25 24 22 20 18 17 17 18 19 21 22 22 23 22 21 20 18 17 16 15 14 14 13 14 13 13 13 14 15 16 17 17 17 17 19 20 22 25 27 28 31 32 34 36 38 40 41 44 48 52 55 58 58 58 57 57 57 58 58 59 60 61
29 29 29 29 29 29 29 29 29 28 28 29 29 30 30 31 31 31 30 29 28 27 27 26 25 24 23 21 20 18 17 18 18 20 21 22 23 22 22 20 18 17 16 15 14 13 13 13 13 14 14 15 16 16 17 17 18 18 18 20 22 24 26 28 30 32 34 36 37 39 42 45 48 52 56 58 59 59 58 58 57 57 58 59 60 61
29 29 29 29 29 29 29 29 29 28 28 28 28 29 29 30 30 30 30 29 28 28 27 26 26 25 24 23 21 20 18 18 18 18 20 21 22 22 21 20 18 17 15 14 14 13 13 13 13 14 15 16 17 17 17 17 18 19 19 19 21 23 25 27 29 31 33 35 37 39 42 45 48 51 55 58 60 61 61 60 59 58 58 58 59 61
29 29 29 29 29 29 29 29 29 28 28 28 28 28 29 29 29 30 30 29 29 28 27 27 26 26 25 24 23 21 20 18 18 18 18 19 20 21 21 20 18 17 16 14 13 13 12 13 13 14 16 17 17 17 17 18 19 19 19 20 20 22 23 25 28 30 32 34 36 38 40 42 45 49 53 57 60 63 64 63 63 62 61 60 60 61
29 29 29 29 29 29 29 29 29 28 28 28 28 28 28 28 29 29 29 29 29 29 28 27 27 26 26 25 25 23 22 20 19 18 18 18 19 20 20 20 19 18 17 15 14 13 12 12 13 15 16 17 17 17 17 18 19 20 20 20 21 21 22 24 26 29 31 33 34 36 38 40 42 45 49 53 57 60 62 64 64 64 63 63 62 62
29 29 29 29 29 29 29 29 29 29 28 28 28 27 28 28 28 28 29 29 29 29 28 28 27 27 26 26 25 25 23 22 20 19 18 18 18 19 19 20 19 19 18 17 15 13 12 12 12 14 16 17 18 17 17 18 19 20 21 21 21 22 22 23 25 27 29 31 33 34 36 38 40 43 45 48 50 52 55 58 60 62 63 63 63 63
29 29 29 30 30 30 30 29 29 29 29 28 28 27 27 27 28 28 28 28 29 29 29 29 28 28 27 26 25 24 24 23 21 20 19 19 18 18 19 19 19 19 18 18 16 15 13 11 11 13 15 17 18 17 17 18 19 21 21 22 22 22 22 23 24 25 27 29 31 33 35 37 39 41 42 44 45 47 50 52 55 58 60 61 62 63
29 29 30 30 30 30 30 30 30 30 29 29 28 28 27 27 27 27 27 28 28 28 29 29 29 28 28 27 26 25 24 23 22 21 20 20 19 19 19 19 19 19 18 18 17 16 14 12 11 11 13 15 17 17 17 18 19 21 22 23 23 23 23 23 24 25 26 28 30 32 34 36 37 38 39 41 43 45 47 49 51 54 56 58 60 62
28 29 29 30 30 30 31 31 30 30 30 30 29 29 28 27 27 27 27 27 27 28 28 29 29 29 28 28 27 26 25 24 23 22 21 20 20 20 20 19 19 19 19 18 17 16 15 13 11 10 11 13 16 18 18 18 20 21 23 23 23 23 23 24 24 25 26 27 29 31 32 34 35 36 38 40 42 43 45 46 48 51 53 56 58 60
Wind_Direction
313 314 314 315 315 315 315 317 318 319 319 321 322 324 326 326 324 323 321 319 318 317 316 315 314 312 309 305 300 295 290 284 279 274 271 270 271 272 273 273 274 273 272 271 268 264 260 254 251 249 247 245 243 243 243 242 240 237 232 225 223 225 228 229 228 227 229 214 194 183 179 175 173 174 177 180 185 189 192 194 200 208 213 216 217 218
314 315 315 316 316 316 316 318 319 320 321 322 324 326 326 325 324 322 320 318 317 316 315 315 315 314 312 309 305 299 294 288 282 277 272 270 269 270 271 272 273 273 273 272 269 265 260 255 251 248 247 244 242 241 241 240 239 238 235 229 226 225 227 229 228 227 229 223 204 186 176 171 169 171 175 179 181 182 183 184 188 197 207 213 216 217
316 316 316 317 317 317 318 319 320 321 322 324 325 326 326 324 323 321 320 318 316 315 314 314 315 315 314 312 308 303 297 292 286 280 274 270 268 268 269 270 271 273 273 272 270 266 261 255 251 248 246 243 241 240 239 239 239 238 236 232 229 227 227 228 228 227 229 230 215 191 176 170 168 170 175 178 180 179 178 178 180 186 196 206 213 215
316 316 317 318 318 318 319 320 321 322 324 325 325 325 324 323 322 320 319 317 316 314 314 314 315 315 315 314 312 308 303 297 290 284 278 273 269 268 268 269 270 272 273 272 270 266 261 256 251 248 246 244 241 239 238 239 239 238 236 234 232 230 229 229 228 228 230 231 220 195 178 171 169 171 175 179 179 177 176 176 178 181 185 197 207 213
317 317 318 318 319 319 320 321 322 324 325 325 324 324 323 322 321 319 318 316 315 315 315 315 315 316 315 316 315 313 309 302 295 288 282 276 272 269 268 268 270 271 273 272 270 267 261 256 251 248 245 243 241 239 238 239 239 238 237 235 234 234 232 230 227 227 229 229 221 202 182 174 172 173 176 179 178 176 176 176 176 176 177 185 199 209
318 318 318 319 320 320 321 322 324 324 324 324 323 322 322 321 320 319 317 316 316 316 316 316 317 316 316 316 316 315 313 307 300 292 286 280 274 270 269 269 270 272 273 273 270 266 261 255 250 247 245 243 241 240 239 240 240 239 238 236 236 236 235 230 227 226 228 228 222 208 190 178 173 174 176 177 176 176 177 174 172 171 169 173 187 202
318 318 319 319 320 321 322 323 324 324 323 321 321 321 320 320 319 318 317 317 316 316 317 317 317 317 316 316 316 316 314 310 304 296 288 281 275 271 269 269 270 272 273 272 270 266 260 255 250 246 244 243 242 240 239 241 242 242 239 237 237 238 235 231 227 226 227 229 226 218 203 186 176 173 174 173 173 173 173 171 169 168 167 168 180 195
319 319 320 321 322 323 323 324 323 322 320 319 319 319 319 319 318 317 317 316 316 317 317 317 317 317 316 315 315 315 314 312 307 299 291 283 276 272 269 268 269 271 271 271 269 265 260 254 249 245 244 243 242 241 240 242 244 243 240 238 237 237 235 232 229 228 229 231 231 227 217 199 183 175 174 174 174 172 170 168 168 168 168 170 179 191
319 320 321 322 323 323 323 323 322 320 318 317 317 318 318 318 317 317 316 316 316 317 317 317 316 315 314 313 313 313 313 312 308 302 295 287 280 275 271 269 269 269 270 269 268 264 259 254 248 245 243 242 242 242 241 242 244 243 240 237 236 236 235 233 231 231 232 234 234 233 226 209 189 179 175 174 173 171 168 166 168 170 172 175 182 191
320 321 322 323 324 324 322 320 319 318 317 316 316 317 317 317 316 316 316 316 316 316 316 315 314 312 311 311 311 311 311 311 308 304 298 291 285 279 274 272 270 269 269 268 266 263 259 253 248 244 242 242 242 242 242 243 245 244 240 237 236 235 234 233 233 234 235 237 237 236 231 217 197 183 177 174 173 171 169 168 171 174 177 181 186 192
321 322 323 323 324 323 320 317 316 316 316 315 315 315 315 314 314 314 314 314 314 315 314 313 312 310 310 310 310 310 310 310 308 304 298 292 286 281 276 273 271 270 269 268 266 262 258 253 248 244 241 241 242 242 243 244 246 245 241 238 236 235 234 234 235 237 238 239 239 238 234 223 208 193 183 177 174 173 170 171 174 179 182 185 189 192
321 322 323 322 321 319 316 314 313 313 313 313 312 312 311 311 311 311 311 312 313 313 314 313 312 311 310 310 310 310 310 310 308 305 299 293 287 282 277 274 272 271 269 268 265 262 258 253 247 243 240 240 241 242 243 245 246 245 242 239 236 235 234 234 236 238 239 239 240 239 236 229 219 206 193 181 177 175 173 173 177 182 186 188 190 191
320 321 321 320 317 314 311 310 310 310 309 309 308 308 308 308 310 311 311 312 312 313 314 313 313 313 312 311 311 310 310 309 308 304 299 294 288 283 279 275 272 271 269 267 265 262 258 253 248 242 239 239 239 241 242 244 246 245 243 240 238 236 235 234 236 238 239 239 239 238 237 233 226 216 203 187 179 177 176 177 181 186 190 190 190 190
318 318 317 314 311 308 306 305 305 305 306 306 306 306 307 308 310 312 313 313 313 314 314 313 313 313 314 313 311 310 309 309 307 304 298 293 288 284 280 276 273 271 269 267 265 262 258 254 248 242 238 237 238 239 241 243 245 245 243 241 239 238 236 235 235 237 238 237 237 237 237 234 229 221 210 195 182 177 177 180 185 191 193 191 190 190
316 315 311 307 304 303 303 303 303 304 306 306 306 306 307 310 312 313 313 312 313 313 313 313 313 313 314 313 311 310 309 308 306 303 298 292 287 283 280 277 274 271 270 268 265 262 259 255 249 243 238 236 236 238 240 242 243 244 243 242 241 240 238 236 235 235 236 236 235 235 235 233 229 222 214 205 191 179 175 179 187 193 195 193 191 190
315 311 306 303 303 304 306 306 306 306 306 306 306 307 309 311 312 313 312 312 312 313 312 313 313 313 314 313 312 311 310 308 307 304 299 292 287 283 281 278 274 271 269 268 266 263 259 255 250 244 238 235 235 236 238 240 242 242 242 242 243 243 242 238 236 235 235 234 234 234 234 232 228 222 216 211 202 187 175 178 186 193 195 194 192 191
313 310 306 305 306 308 309 309 307 306 305 306 307 309 311 312 312 312 312 311 312 312 312 312 312 311 313 313 313 312 310 309 307 305 301 295 290 286 283 279 275 271 269 267 265 263 260 256 251 246 240 235 234 235 236 239 240 241 241 243 245 246 244 240 236 235 234 234 233 233 234 232 228 222 216 212 207 196 180 176 182 189 193 194 193 192
312 310 308 308 309 311 311 309 307 306 307 309 311 312 313 312 312 312 311 311 311 311 311 311 311 311 311 312 314 314 311 309 307 305 302 298 294 289 285 280 275 271 268 266 265 263 261 258 253 248 242 236 234 233 235 237 238 240 241 243 246 247 245 240 237 235 234 233 233 233 233 232 229 223 215 210 206 199 185 178 181 186 190 191 192 192
312 312 312 312 313 312 311 310 309 310 311 313 314 314 313 312 312 312 312 312 312 311 311 310 310 311 311 311 312 312 310 308 306 304 302 300 296 292 288 282 276 270 267 265 264 263 262 259 255 250 244 238 234 233 234 235 237 239 240 243 245 246 245 240 237 234 233 233 233 233 233 233 230 224 215 207 204 200 190 182 182 186 189 190 190 191
312 315 316 315 314 313 313 314 315 315 315 315 314 313 312 313 313 313 313 313 312 312 311 310 310 310 310 310 310 310 309 306 304 302 301 299 297 294 291 286 278 271 267 264 264 263 262 260 256 251 246 240 236 233 233 234 236 238 240 243 245 246 244 240 237 234 233 232 232 232 233 232 230 226 216 206 203 201 194 186 185 188 189 189 190 191
314 317 319 318 315 315 316 318 320 319 318 316 314 313 313 314 315 315 315 314 313 312 310 309 308 308 307 307 307 308 307 305 303 301 301 299 296 294 293 288 281 274 268 265 264 263 262 260 257 253 248 242 237 234 233 234 235 237 239 242 244 245 243 240 237 234 233 232 232 232 232 232 231 227 219 209 203 201 198 191 189 190 191 190 190 191
316 319 320 320 319 319 320 322 322 321 319 317 314 314 315 315 316 316 315 314 312 311 309 307 307 306 306 306 307 308 307 305 304 302 301 299 296 294 293 289 282 275 271 267 264 263 262 260 257 254 249 244 238 234 233 233 235 236 239 241 244 244 243 240 238 235 233 232 231 231 231 231 231 228 222 213 207 204 203 197 193 192 192 192 191 191
319 320 322 322 323 323 323 323 323 321 320 318 317 316 317 317 316 315 314 313 311 310 310 309 308 308 307 307 307 307 306 305 304 303 300 298 297 296 294 289 283 277 273 268 266 263 261 260 258 255 251 246 240 235 233 234 235 236 238 240 242 243 243 241 238 236 233 231 230 230 230 231 230 229 225 218 212 210 209 204 198 194 194 194 193 194
321 322 324 325 325 325 324 323 322 321 320 320 319 319 319 317 316 314 313 312 312 312 312 311 310 309 309 309 308 307 306 305 303 302 299 298 297 296 295 290 285 279 274 270 267 264 262 260 259 257 254 249 242 236 234 234 235 236 237 239 241 242 243 241 239 237 234 231 230 229 229 230 230 229 227 222 218 216 215 211 203 198 196 196 196 197
322 323 325 326 326 325 324 323 322 322 321 321 321 320 319 317 316 314 313 313 313 314 314 313 312 311 311 310 308 306 306 304 302 300 298 297 296 295 294 290 285 280 274 270 267 265 263 261 260 259 256 252 246 239 235 234 235 236 236 238 240 241 242 242 240 238 235 231 229 229 229 229 229 229 227 225 222 221 221 217 208 201 198 198 199 200
322 324 325 325 325 325 325 324 324 324 324 323 322 320 319 317 315 314 313 313 314 315 315 314 313 313 312 310 308 307 305 303 300 298 297 296 294 293 292 289 285 280 276 271 268 266 264 263 262 261 259 255 250 244 238 236 235 235 235 236 238 240 241 242 241 239 236 232 229 228 228 228 228 228 227 226 225 224 224 220 210 203 200 200 202 203
322 324 325 325 326 326 326 327 327 328 327 325 323 320 318 316 314 314 314 315 316 316 316 315 314 313 312 310 309 307 304 300 298 297 296 294 293 291 290 287 284 281 277 273 270 267 266 265 264 262 261 258 253 248 242 238 236 235 234 235 236 238 240 241 241 240 237 234 230 227 226 226 226 226 226 225 225 225 225 220 211 203 201 201 203 204
324 325 325 326 327 328 329 330 330 330 328 326 322 320 317 316 315 315 316 317 317 318 318 316 315 314 313 311 309 306 302 299 298 297 294 292 290 289 289 286 283 281 279 276 272 270 268 267 265 264 262 259 255 251 246 241 237 234 233 233 235 236 238 240 241 240 238 235 231 227 224 223 222 223 223 223 223 224 223 218 209 203 200 201 202 204
326 326 327 328 329 330 331 331 331 330 327 325 322 320 318 318 318 318 318 319 319 320 320 319 317 315 314 312 310 307 304 302 299 296 292 290 288 287 287 285 283 281 281 279 275 272 269 268 267 264 262 259 256 252 248 243 238 234 232 232 233 234 236 238 240 240 239 236 232 228 223 220 219 218 219 219 220 221 220 216 208 202 200 200 201 202
328 329 329 330 331 331 331 330 330 328 327 325 324 323 322 322 322 322 321 321 322 322 321 320 318 317 315 314 313 311 309 308 304 298 292 290 288 286 285 283 283 282 282 281 279 275 270 267 265 264 262 259 256 252 248 244 239 234 231 230 231 233 234 236 238 239 238 237 234 229 223 219 216 214 214 214 216 217 217 212 206 202 200 200 200 201
329 330 331 331 331 330 329 329 328 328 328 329 329 328 328 327 327 326 325 324 324 324 322 320 319 317 315 315 314 315 315 314 308 301 294 291 288 286 285 284 283 283 283 283 282 280 273 266 262 262 261 259 256 252 248 243 239 234 231 229 230 231 233 234 236 237 238 237 235 231 225 219 214 211 210 210 211 213 212 209 205 202 201 201 201 201
330 331 331 331 329 328 327 327 328 329 331 332 333 334 333 332 331 330 328 327 326 325 323 321 319 317 316 315 316 317 318 316 310 302 295 292 290 289 288 286 285 284 283 283 283 282 279 270 260 257 258 258 256 253 247 242 238 233 230 228 228 229 231 232 234 235 236 237 236 233 227 221 215 210 207 206 208 209 209 205 203 202 203 202 202 201
332 332 331 329 327 326 327 328 330 332 334 335 336 337 336 335 334 332 330 328 327 326 324 322 320 318 317 317 318 319 320 317 310 303 298 295 294 293 292 290 289 286 284 283 282 282 281 276 266 256 254 255 255 253 248 242 237 232 229 227 226 227 229 230 232 233 235 236 236 234 229 223 217 210 205 204 204 206 206 203 202 202 203 203 203 203
333 332 330 328 326 327 328 330 332 334 336 337 338 338 338 337 336 334 332 330 328 326 325 323 321 319 318 318 320 321 320 316 311 307 305 303 302 301 299 296 293 289 286 284 282 281 280 278 271 262 254 251 252 252 249 243 237 231 227 225 225 225 225 227 230 231 233 235 235 234 230 225 218 211 205 202 202 203 204 203 203 203 204 204 204 204
333 331 329 327 327 328 330 332 334 335 337 338 339 339 339 339 337 336 334 331 329 327 326 325 323 321 320 320 320 322 321 316 312 311 311 311 310 308 305 302 298 294 290 286 283 281 279 276 272 265 256 251 249 249 247 243 237 231 226 224 223 222 223 224 227 229 231 233 234 233 230 225 219 211 205 201 201 203 204 205 205 205 204 204 204 204
332 330 328 328 329 330 332 333 334 336 337 338 339 340 340 340 339 337 336 333 331 329 328 326 325 324 323 322 322 322 322 318 316 315 315 316 315 314 312 310 306 299 294 290 286 282 278 275 270 264 258 252 248 245 244 241 235 230 225 222 221 220 221 222 224 227 229 231 232 232 229 224 218 210 205 203 202 204 206 207 208 207 206 205 205 204
331 330 329 330 331 332 333 334 335 336 337 339 340 340 341 341 340 339 338 336 334 332 329 328 327 326 325 324 323 323 323 321 319 318 318 318 318 317 317 316 313 307 301 296 290 284 280 275 269 263 257 252 248 244 241 237 233 228 223 220 219 218 218 220 223 225 228 229 230 230 228 224 218 211 207 205 205 206 208 209 209 209 208 207 206 206
330 329 330 331 332 333 334 334 335 336 337 338 339 340 341 341 341 341 340 339 337 335 332 329 328 327 326 325 323 322 322 321 320 319 319 320 320 320 320 321 320 315 308 302 295 289 283 278 271 263 256 250 246 242 237 234 230 227 223 219 217 216 216 217 220 223 226 228 230 230 228 224 219 214 210 209 208 209 210 210 211 211 210 209 208 208
330 330 331 332 333 334 334 334 335 336 337 338 339 340 341 342 342 342 342 341 339 337 335 332 329 327 326 324 322 321 320 319 318 317 317 318 319 321 323 323 322 320 316 308 301 294 287 282 274 265 255 248 244 240 235 231 227 223 220 217 215 214 214 215 217 220 223 226 228 230 229 226 222 218 214 212 211 211 211 212 212 212 212 212 211 210
329 330 332 333 333 334 334 334 335 336 336 338 339 340 341 342 343 343 342 342 340 338 336 334 332 329 326 323 320 318 317 316 316 315 315 315 316 318 319 320 321 320 317 311 304 297 290 283 275 266 256 249 244 240 236 230 224 219 216 214 212 212 212 212 214 216 219 223 225 228 228 227 224 221 218 215 213 212 212 212 212 212 212 213 213 213
329 330 332 333 334 334 334 335 335 336 336 337 338 340 341 342 343 343 343 342 340 338 337 336 334 332 329 324 319 315 313 313 313 314 314 314 314 314 314 315 315 315 313 310 305 298 291 284 276 267 257 249 244 240 236 230 224 218 214 211 210 210 210 210 211 213 215 219 222 224 226 226 224 222 219 217 215 214 213 212 212 212 212 213 213 213
328 330 331 333 334 334 335 335 335 336 336 337 338 338 340 341 343 343 343 343 341 339 338 337 336 334 331 326 319 313 310 309 310 311 313 314 314 314 313 312 311 310 308 306 303 298 292 284 275 266 258 250 245 240 236 231 225 219 214 211 209 208 208 209 209 210 212 214 218 221 223 224 224 222 220 218 217 215 214 213 212 212 212 212 213 213
327 329 331 333 334 335 336 336 336 336 336 336 337 337 338 340 342 343 344 344 343 341 340 338 337 335 333 329 322 314 309 307 307 308 309 311 312 313 314 313 311 309 306 304 302 298 292 284 275 266 258 250 244 240 237 234 229 223 216 211 207 206 205 206 207 207 208 210 213 217 220 222 222 222 221 219 217 216 215 214 213 213 212 213 213 213
326 329 331 333 334 335 336 336 337 337 336 336 336 336 337 338 340 342 344 345 345 344 342 340 338 336 333 330 326 320 313 308 306 306 307 308 309 311 313 314 313 311 308 305 302 298 292 284 276 267 258 250 245 240 237 234 231 227 221 213 209 206 204 204 205 206 206 207 209 212 216 219 221 221 221 220 218 217 215 214 214 214 213 213 213 213
326 328 331 333 334 335 336 337 337 337 336 336 335 335 335 336 338 341 343 345 346 346 344 342 340 337 335 333 330 327 322 316 311 309 308 307 308 309 311 313 315 314 311 307 303 298 291 283 276 266 258 251 245 241 237 234 232 229 225 218 213 209 206 204 204 205 205 205 206 208 212 215 218 220 221 221 220 219 218 217 216 216 216 216 214 213
325 328 330 333 334 335 336 337 337 337 337 336 335 334 334 335 336 339 342 345 347 347 347 345 343 340 338 336 333 331 329 325 320 315 312 309 309 309 311 313 315 315 313 309 305 299 291 282 273 265 258 252 246 242 237 234 232 230 227 222 218 212 207 205 204 204 204 204 205 206 208 210 213 216 218 220 221 222 222 222 222 221 220 219 217 214
324 327 330 332 333 334 335 336 337 337 336 336 335 333 333 333 335 337 340 343 345 347 347 346 345 343 341 338 336 334 332 330 326 322 317 313 311 310 311 312 313 314 313 310 306 300 292 282 272 264 257 253 248 243 238 234 232 231 228 225 220 216 211 208 206 204 203 204 204 205 206 207 208 211 214 216 219 221 223 224 224 224 223 221 218 215
324 327 329 331 332 333 334 335 336 336 336 336 335 333 332 332 333 335 337 340 343 345 346 347 346 345 343 340 337 334 332 331 329 325 321 316 313 310 309 309 310 310 310 309 305 301 294 284 274 265 257 253 250 246 240 236 233 231 228 225 222 218 214 211 208 206 204 203 203 204 205 206 207 208 209 211 213 216 218 220 222 222 222 220 218 215
323 326 328 330 331 332 333 334 335 335 336 335 334 333 332 331 332 333 335 337 340 342 344 346 346 346 345 342 338 335 332 330 327 325 321 317 313 310 307 306 306 306 305 305 303 300 295 286 276 266 259 253 250 247 243 238 234 231 228 225 222 219 215 212 209 208 206 204 203 203 204 206 207 207 208 209 210 211 213 215 216 218 219 218 217 215
322 325 327 329 330 331 332 333 334 334 335 334 334 333 332 331 330 331 332 335 337 340 342 344 345 345 344 342 339 336 333 330 326 323 320 316 312 309 306 304 303 302 301 301 300 298 295 289 278 266 258 253 250 248 245 240 235 231 228 225 222 219 216 213 210 209 208 206 204 203 204 205 206 207 208 209 209 210 211 211 212 214 215 216 215 214
321 324 326 328 329 330 330 331 332 333 333 334 334 333 332 331 330 330 331 332 335 337 339 341 342 343 343 342 340 337 334 330 327 323 319 315 312 309 306 304 303 301 299 298 297 296 294 290 282 268 256 250 248 247 245 241 237 233 230 226 222 219 216 214 212 210 209 207 205 204 204 204 205 206 207 208 209 209 209 210 210 211 212 213 213 213